SL-14 DEB

基本信息
目录编号:
26027
目录名称:
SL-14 DEB
国际标识:
1991-068AN
轨道中心:
EARTH
物体状态:
在轨
发射日期:
1991-09-28 UTC
轨道信息
数据来源: 国际轨道数据
星历时间: 2026-09-12T09:30:29+0800
半长轴: 7902.761km
偏心率: 0.0112649
轨道倾角: 83.284°
近地点辐角: 217.233°
升交点赤经: 117.492°
平近点角: 297.814°
近地点: 1435.6km
远地点: 1613.648km
周期: 116.527分钟
每日圈数: 12.357611
详细信息
发射场:
PKMTR
轨道高度:
LEO
数据来源:
AOE Integration Group
参考系:
TEME
时间系统:
UTC
历元类型:
SGP4
2D轨道图
3D轨道图
轨道高度分析图
轨道倾角分析图
轨道综合分析图
查看轨道综合分析图